Location: Newark
(3.0500°N, 36.0167°E)
Time: 22:37:58
(UTC+00:00)

A-11 Canister half - Pass Details

Date: 03 September 2019
Orbit: 1527 x 1682 km, 47.3° (Epoch: 17 September)

Event Time Altitude Azimuth Distance (km) Brightness Sun altitude
Rises 04:08:53 0° 233° (SW) 4,685 11.0 8.7°
Reaches altitude 10° 04:12:02 10° 238° (WSW) 3,713 10.5 9.4°
Maximum altitude 04:20:59 49° 311° (NW) 1,932 9.5 11.7°
Drops below altitude 10° 04:30:12 10° 24° (NNE) 3,811 11.6 13.9°
Sets 04:33:31 0° 29° (NNE) 4,818 12.2 14.8°
